Weather History for KTXK - March, 2014

Change the Weather History Date:

Saturday, March 1, 2014

  Actual Average Record
Temperature  
Mean Temperature 60 °F 52 °F  
Max Temperature 73 °F 63 °F 85 °F (1921)
Min Temperature 46 °F 41 °F 23 °F (1968)
Degree Days  
Heating Degree Days 5 13  
Month to date heating degree days 5 13  
Since 1 July heating degree days 2473 2207  
Cooling Degree Days 0 0  
Month to date cooling degree days 0 0  
Year to date cooling degree days 0 4  
Growing Degree Days 10 (Base 50)    
Moisture  
Dew Point 53 °F    
Average Humidity 82    
Maximum Humidity 100    
Minimum Humidity 64    
Precipitation  
Precipitation 0.01 in 0.14 in 1.86 in (1948)
Month to date precipitation 0.01 0.14  
Year to date precipitation 3.93 7.53  
Snow  
Snow 0.00 in - - ()
Month to date snowfall  
Since 1 July snowfall 1.7  
Snow Depth 0.00 in    
Sea Level Pressure  
Sea Level Pressure 29.99 in    
Wind  
Wind Speed 7 mph (ESE)    
Max Wind Speed 14 mph    
Max Gust Speed 18 mph    
Visibility 5 miles    
Events Fog , Rain    
T = Trace of Precipitation, MM = Missing Value Source: NWS Daily Summary

Daily Weather History Graph

Daily Weather History Graph

Search for Another Location

Airport or City:

Trip Planner

Search our weather history database for the weather conditions in past years. The results will help you decide how hot, cold, wet, or windy it might be!

Date:

Astronomy

Mar. 01, 2014 Rise Set
Actual Time 6:44 AM CST 6:12 PM CST
Civil Twilight 6:19 AM CST 6:37 PM CST
Nautical Twilight 5:50 AM CST 7:06 PM CST
Astronomical Twilight 5:21 AM CST 7:35 PM CST
Moon 6:41 AM CST (3/1) 6:56 PM CST (3/1)
Length of Visible Light 12h 18m
Length of Day
11h 28m
New Moon, 0% of the Moon is Illuminated
Mar 1
New Moon
Mar 8
First Quarter
Mar 16
Full
Mar 23
Last Quarter
Mar 30
New

Hourly Weather History & Observations

Time (CST) Temp. Windchill Dew Point Humidity Pressure Visibility Wind Dir Wind Speed Gust Speed Precip Events Conditions
12:53 AM 48.0 °F - 44.1 °F 86% 29.95 in 10.0 mi ENE 4.6 mph - N/A   Overcast
1:33 AM 46.4 °F 43.5 °F 44.6 °F 93% 29.96 in 2.5 mi ENE 5.8 mph - N/A   Overcast
1:46 AM 46.4 °F 43.5 °F 44.6 °F 93% 29.96 in 1.8 mi ENE 5.8 mph - N/A   Overcast
1:53 AM 46.9 °F - 45.0 °F 93% 29.96 in 1.8 mi ENE 6.9 mph - N/A   Overcast
2:17 AM 46.4 °F 42.9 °F 44.6 °F 93% 29.96 in 1.5 mi ENE 6.9 mph - N/A   Overcast
2:53 AM 46.0 °F 43.1 °F 45.0 °F 96% 29.97 in 1.2 mi ENE 5.8 mph - 0.00 in Rain Light Rain
3:18 AM 46.4 °F 42.9 °F 44.6 °F 93% 29.97 in 1.5 mi NE 6.9 mph - 0.01 in   Overcast
3:53 AM 46.0 °F 43.1 °F 45.0 °F 96% 29.97 in 1.8 mi ENE 5.8 mph - 0.01 in   Overcast
4:53 AM 46.9 °F - 46.0 °F 97% 29.99 in 1.2 mi ENE 5.8 mph - N/A   Overcast
5:04 AM 46.4 °F 44.3 °F 46.4 °F 100% 29.99 in 1.5 mi ENE 4.6 mph - N/A   Overcast
5:29 AM 46.4 °F 42.9 °F 46.4 °F 100% 30.00 in 1.2 mi ENE 6.9 mph - N/A   Overcast
5:36 AM 46.4 °F 43.5 °F 46.4 °F 100% 29.99 in 1.5 mi ENE 5.8 mph - N/A   Overcast
5:53 AM 46.9 °F - 46.0 °F 97% 30.00 in 1.5 mi ENE 5.8 mph - N/A   Overcast
6:48 AM 46.4 °F 42.9 °F 46.4 °F 100% 30.02 in 2.0 mi ENE 6.9 mph - N/A   Overcast
6:53 AM 46.9 °F - 46.0 °F 97% 30.02 in 2.5 mi ENE 5.8 mph - N/A   Overcast
7:08 AM 46.4 °F 43.5 °F 46.4 °F 100% 30.02 in 1.5 mi ENE 5.8 mph - N/A   Overcast
7:53 AM 48.0 °F - 46.9 °F 96% 30.03 in 1.8 mi East 5.8 mph - N/A   Overcast
8:20 AM 48.2 °F - 46.4 °F 93% 30.04 in 1.2 mi East 4.6 mph - N/A   Overcast
8:37 AM 48.2 °F - 48.2 °F 100% 30.04 in 0.8 mi East 4.6 mph - N/A   Overcast
8:53 AM 48.9 °F - 48.0 °F 97% 30.04 in 0.5 mi Calm Calm - N/A Fog Fog
9:53 AM 52.0 °F - 52.0 °F 100% 30.04 in 0.8 mi Variable 3.5 mph - N/A   Overcast
10:13 AM 53.6 °F - 53.6 °F 100% 30.04 in 1.0 mi Calm Calm - N/A   Overcast
10:31 AM 55.4 °F - 53.6 °F 94% 30.05 in 1.5 mi SE 3.5 mph - N/A   Overcast
10:51 AM 55.4 °F - 55.4 °F 100% 30.05 in 2.0 mi SE 3.5 mph - N/A   Overcast
10:53 AM 57.0 °F - 55.9 °F 96% 30.04 in 2.0 mi ESE 3.5 mph - N/A   Overcast
11:37 AM 59.0 °F - 57.2 °F 94% 30.04 in 3.0 mi ESE 5.8 mph - N/A   Overcast
11:53 AM 60.1 °F - 57.9 °F 93% 30.03 in 3.0 mi ESE 5.8 mph - N/A   Overcast
12:35 PM 62.6 °F - 57.2 °F 82% 30.02 in 5.0 mi SSE 6.9 mph - N/A   Overcast
12:53 PM 63.0 °F - 59.0 °F 87% 30.01 in 6.0 mi SE 6.9 mph - N/A   Overcast
1:20 PM 64.4 °F - 59.0 °F 83% 30.00 in 7.0 mi SE 8.1 mph - N/A   Overcast
1:53 PM 66.9 °F - 60.1 °F 79% 29.98 in 9.0 mi SE 9.2 mph - N/A   Overcast
2:04 PM 66.2 °F - 60.8 °F 83% 29.98 in 9.0 mi SE 5.8 mph - N/A   Overcast
2:49 PM 69.8 °F - 60.8 °F 73% 29.97 in 10.0 mi SE 10.4 mph - N/A   Overcast
2:53 PM 70.0 °F - 60.1 °F 71% 29.96 in 10.0 mi SE 9.2 mph - N/A   Overcast
3:31 PM 71.6 °F - 60.8 °F 69% 29.97 in 10.0 mi South 10.4 mph - N/A   Mostly Cloudy
3:53 PM 72.0 °F - 61.0 °F 68% 29.95 in 10.0 mi SE 9.2 mph - N/A   Mostly Cloudy
4:04 PM 71.6 °F - 60.8 °F 69% 29.95 in 10.0 mi SE 11.5 mph - N/A   Scattered Clouds
4:53 PM 73.0 °F - 61.0 °F 66% 29.94 in 10.0 mi SE 11.5 mph - N/A   Clear
5:53 PM 70.0 °F - 61.0 °F 73% 29.94 in 10.0 mi SE 4.6 mph - N/A   Clear
6:53 PM 68.0 °F - 60.1 °F 76% 29.94 in 10.0 mi South 9.2 mph - N/A   Clear
7:53 PM 66.0 °F - 57.9 °F 75% 29.95 in 10.0 mi SSE 6.9 mph - N/A   Clear
8:53 PM 64.9 °F - 59.0 °F 81% 29.96 in 10.0 mi SE 5.8 mph - N/A   Clear
9:53 PM 64.0 °F - 60.1 °F 87% 29.96 in 10.0 mi SE 4.6 mph - N/A   Partly Cloudy
10:53 PM 66.0 °F - 61.0 °F 84% 29.94 in 10.0 mi SSE 12.7 mph - N/A   Clear
11:53 PM 66.0 °F - 61.0 °F 84% 29.94 in 10.0 mi South 13.8 mph - N/A   Clear